User: anonymous   Login
Location: Mentone
(34.5413°N, 85.5351°W)
Time: 07:34:48
(UTC-06:00)
Language:

A-11 Canister half - Orbit

View from above orbital plane
View from above orbital plane
View from above satellite
View from above satellite

Ground track
Ground track

The orbit data is extracted from the following two-line orbital elements,

1 00053U 60009E   16344.17469539 -.00000084  00000-0  00000+0 0  9997
2 00053  47.2769 265.4647 0097510 241.4924 117.6017 12.17191371511897
Epoch (UTC): 09 December 2016 04:11:33
Eccentricity: 0.0097510
inclination: 47.2769°
perigee height: 1527 km
apogee height: 1682 km
right ascension of ascending node: 265.4647°
argument of perigee: 241.4924°
revolutions per day: 12.17191371
mean anomaly at epoch: 117.6017°
orbit number at epoch: 51189

The dashed part of the orbit path shows where the satellite is in the earth's shadow,  

DLR